Flag for Germany Weather past 2 weeks in Mülheim / Ruhr, North Rhine-Westphalia, Germany

Now
73 °F

Scattered showers. Partly sunny.


Feels Like: 75 °F
Forecast: 62 / 74 °F
Wind: 12 mph from North

Location: Duesseldorf

Current Time: Jul 29, 2014 at 10:54:47 PM

Latest Report: Jul 29, 2014 at 10:20 PM


Visibility: N/A

Pressure: 29.83 "Hg

Humidity: 74%

Dew point: 64 °F

Location of Mülheim / RuhrLocation

Historic Weather in Mülheim / Ruhr — Graph

°F

Mülheim / Ruhr temperature yesterday

Maximum temperature yesterday: 82 °F (at 1:20 PM)
Minimum temperature yesterday: 64 °F (at 1:20 AM)
Average temperature yesterday: 71 °F

Past Weeks' High & Low Weather Summary

 TemperatureHumidityPressure
High93 °F (Jul 19, 3:50 PM)100% (Jul 16, 6:20 AM)30.18 "Hg (Jul 16, 6:20 AM)
Low55 °F (Jul 15, 1:50 AM)23% (Jul 19, 4:50 PM)29.77 "Hg (Jul 19, 10:50 PM)
Average72 °F70%29.97 "Hg
* Reported Jul 14 9:20 PM — Jul 29 9:50 PM, Mülheim / Ruhr, Weather by CustomWeather, © 2014

Note: Actual official high and low records may vary slightly from our data, if they occured in-between our weather recording intervals... More about our weather records

Advertising

Mülheim / Ruhr weather history for previous 24 hours

 ConditionsComfort  
Time TempWeatherWind HumidityBarometerVisibility
9:50 PM
Jul 29
73 °FSprinkles. Broken clouds.7 mph78%29.80 "HgN/A
9:20 PM72 °FSprinkles. Partly sunny.9 mph83%29.80 "HgN/A
8:50 PM73 °FScattered showers. Broken clouds.6 mph78%29.80 "HgN/A
8:20 PM73 °FBroken clouds.6 mph78%29.80 "HgN/A
7:50 PM73 °FPartly sunny.5 mph78%29.77 "HgN/A
7:20 PM73 °FPartly sunny.5 mph78%29.77 "HgN/A
6:50 PM73 °FSprinkles. Broken clouds.5 mph78%29.77 "HgN/A
6:20 PM73 °FThundershowers. Broken clouds.6 mph74%29.80 "HgN/A
5:50 PM73 °FThundershowers. Broken clouds.10 mph74%29.80 "HgN/A
5:20 PM77 °FThundershowers. Broken clouds.7 mph65%29.80 "HgN/A
4:50 PM79 °FBroken clouds.7 mph58%29.77 "HgN/A
4:20 PM77 °FBroken clouds.7 mph65%29.80 "HgN/A
3:50 PM79 °FBroken clouds.8 mph61%29.80 "HgN/A
3:20 PM79 °FPartly sunny.12 mph58%29.80 "HgN/A
2:50 PM77 °FScattered clouds.12 mph69%29.80 "HgN/A
2:20 PM75 °FSprinkles. Partly sunny.12 mph74%29.80 "HgN/A
1:50 PM77 °FSprinkles. Partly sunny.8 mph74%29.80 "HgN/A
1:20 PM79 °FScattered clouds.8 mph61%29.83 "HgN/A
12:50 PM77 °FScattered clouds.10 mph69%29.83 "HgN/A
12:20 PM77 °FScattered clouds.7 mph69%29.83 "Hg6 mi
11:50 AM75 °FPassing clouds.12 mph74%29.83 "Hg4 mi
11:20 AM73 °FPassing clouds.7 mph78%29.83 "Hg4 mi
10:50 AM72 °FFog.7 mph83%29.83 "Hg3 mi
10:20 AM68 °FFog.7 mph88%29.86 "Hg2 mi
9:50 AM68 °FFog.7 mph94%29.83 "Hg2 mi
9:20 AM66 °FFog.7 mph94%29.83 "Hg1 mi
8:50 AM66 °FFog.7 mph94%29.83 "Hg2 mi
8:20 AM66 °FFog.6 mph94%29.83 "Hg2 mi
7:50 AM66 °FFog.6 mph94%29.83 "Hg2 mi
7:20 AM64 °FScattered showers. Fog.7 mph94%29.83 "Hg3 mi
6:50 AM64 °FSprinkles. Fog.1 mph94%29.83 "Hg3 mi
6:20 AM64 °FScattered showers. Fog.5 mph94%29.83 "Hg2 mi
5:50 AM64 °FPassing clouds.1 mph94%29.83 "Hg5 mi
5:20 AM64 °FClear.2 mph94%29.83 "Hg6 mi
4:50 AM64 °FClear.3 mph94%29.83 "Hg4 mi
4:20 AM64 °FClear.5 mph94%29.86 "Hg4 mi
3:50 AM64 °FClear.5 mph94%29.86 "Hg10 mi
3:20 AM64 °FClear.6 mph94%29.86 "Hg10 mi
2:50 AM64 °FClear.3 mph94%29.86 "Hg10 mi
2:20 AM64 °FClear.5 mph94%29.86 "Hg10 mi
1:50 AM66 °FClear.6 mph88%29.83 "Hg10 mi
1:20 AM66 °FClear.7 mph88%29.86 "Hg10 mi
12:50 AM66 °FClear.6 mph94%29.86 "Hg10 mi
12:20 AM66 °FLight rain. Clear.8 mph94%29.86 "HgN/A
10:50 PM
Jul 28
66 °FPassing clouds.5 mph94%29.86 "HgN/A
10:20 PM66 °FPartly sunny.5 mph94%29.86 "HgN/A
Weather by CustomWeather, © 2014

See weather overviewHow to use our weather pages